Location: Aiyede
(8.4833°N, 4.4500°E)
Time: 13:54:41
(UTC+00:00)

Envisat - Pass Details

Date: 01 December 2020
Orbit: 764 x 766 km, 98.1° (Epoch: 18 January)

Event Time Altitude Azimuth Distance (km) Brightness Sun altitude
Rises 18:04:43 0° 200° (SSW) 3,223 6.9 -10.8°
Reaches altitude 10° 18:07:45 10° 219° (SW) 2,297 6.5 -11.5°
Maximum altitude 18:11:01 17° 260° (W) 1,839 6.2 -12.3°
Drops below altitude 10° 18:14:18 10° 300° (WNW) 2,296 6.0 -13.0°
Sets 18:17:22 0° 320° (NW) 3,221 6.5 -13.7°
